Powrót do katalogu

METEOR 2-11 DEB

AktywnyPO
NORAD 42454·DEBRIS·🇷🇺 Russia

Wystrzelony Jul 5, 1984 z Plesetsk Cosmodrome

Loading…

Następne Przeloty (najbliższe 24 godziny)

TLE

Starzejące sięSource: Space-Track

Epoka: Sep 3, 2026, 21:23 UTC

1 42454U 84072Q   26246.89165108  .00001393  00000-0  95294-3 0  9996
2 42454  82.5107 298.2084 0020046 105.6041 254.7341 13.98960599573679

Śledź METEOR 2-11 DEB w czasie rzeczywistym z AllMySat

Download on the App Store